Total_Precipitation_Accumulation
0.28 0.30 0.41 0.46 0.40 0.39 0.47 0.54 0.68 0.67 0.66 0.54 0.50 0.54 0.57 0.54 0.50 0.47 0.41 0.35 0.36 0.36 0.39 0.38 0.38 0.40 0.40 0.38 0.44 0.52 0.66 0.78 0.83 0.86 0.88 0.85 0.79 0.77 0.81 0.78 0.77 0.90 1.07 1.24
0.18 0.19 0.27 0.34 0.35 0.36 0.36 0.40 0.51 0.58 0.57 0.44 0.40 0.39 0.39 0.37 0.31 0.30 0.31 0.27 0.25 0.25 0.27 0.26 0.25 0.25 0.26 0.33 0.41 0.47 0.55 0.66 0.81 0.88 0.81 0.76 0.70 0.69 0.72 0.71 0.68 0.77 0.91 1.09
0.27 0.23 0.25 0.50 0.52 0.52 0.53 0.46 0.46 0.41 0.33 0.21 0.20 0.23 0.26 0.26 0.27 0.30 0.27 0.21 0.19 0.19 0.21 0.22 0.23 0.25 0.28 0.35 0.44 0.45 0.49 0.61 0.81 0.82 0.71 0.66 0.72 0.76 0.73 0.71 0.71 0.76 0.79 0.82
0.29 0.32 0.61 0.84 0.62 0.59 0.54 0.32 0.18 0.13 0.13 0.12 0.17 0.17 0.15 0.16 0.19 0.22 0.20 0.16 0.14 0.13 0.13 0.14 0.17 0.21 0.24 0.28 0.32 0.36 0.41 0.51 0.66 0.69 0.67 0.70 0.71 0.69 0.64 0.60 0.59 0.62 0.65 0.69
0.32 0.38 0.62 0.65 0.42 0.34 0.34 0.22 0.08 0.07 0.08 0.10 0.12 0.11 0.09 0.09 0.10 0.12 0.11 0.08 0.06 0.06 0.06 0.05 0.06 0.07 0.11 0.13 0.16 0.21 0.28 0.37 0.47 0.50 0.55 0.58 0.57 0.57 0.53 0.50 0.52 0.53 0.58 0.65
0.47 0.59 0.61 0.32 0.17 0.16 0.22 0.27 0.08 0.04 0.04 0.04 0.06 0.09 0.06 0.04 0.05 0.06 0.06 0.04 0.03 0.02 0.01 0.01 0.01 0.02 0.04 0.07 0.10 0.14 0.21 0.27 0.35 0.38 0.42 0.44 0.49 0.52 0.52 0.49 0.47 0.47 0.50 0.54
0.48 0.68 0.56 0.22 0.11 0.12 0.22 0.28 0.09 0.03 0.02 0.02 0.02 0.04 0.02 0.03 0.04 0.04 0.04 0.03 0.01 0.01 0.00 0.00 0.01 0.01 0.02 0.05 0.08 0.09 0.12 0.17 0.23 0.31 0.38 0.46 0.52 0.53 0.56 0.53 0.48 0.47 0.55 0.56
0.41 0.56 0.51 0.20 0.15 0.19 0.18 0.08 0.03 0.02 0.02 0.01 0.01 0.01 0.01 0.02 0.02 0.03 0.03 0.02 0.01 0.01 0.00 0.01 0.01 0.01 0.01 0.02 0.03 0.05 0.07 0.12 0.19 0.26 0.34 0.42 0.52 0.55 0.55 0.55 0.54 0.56 0.57 0.60
0.44 0.58 0.38 0.23 0.21 0.19 0.13 0.06 0.03 0.02 0.01 0.01 0.01 0.00 0.00 0.01 0.02 0.02 0.03 0.02 0.01 0.01 0.01 0.01 0.01 0.01 0.00 0.00 0.00 0.01 0.03 0.07 0.12 0.16 0.20 0.25 0.34 0.42 0.48 0.53 0.54 0.55 0.60 0.68
0.33 0.33 0.20 0.18 0.17 0.12 0.07 0.04 0.02 0.01 0.00 0.01 0.01 0.00 0.00 0.01 0.01 0.02 0.02 0.02 0.01 0.01 0.01 0.01 0.00 0.00 0.00 0.00 0.00 0.01 0.02 0.04 0.06 0.07 0.08 0.11 0.20 0.29 0.36 0.44 0.50 0.57 0.63 0.72
0.25 0.26 0.15 0.11 0.10 0.07 0.05 0.02 0.01 0.01 0.01 0.01 0.01 0.00 0.00 0.00 0.01 0.01 0.01 0.01 0.01 0.01 0.01 0.00 0.00 0.00 0.00 0.01 0.01 0.01 0.01 0.02 0.03 0.05 0.07 0.09 0.15 0.23 0.28 0.36 0.39 0.44 0.54 0.66
0.25 0.23 0.18 0.09 0.07 0.05 0.03 0.02 0.02 0.01 0.01 0.00 0.01 0.00 0.00 0.00 0.01 0.01 0.01 0.01 0.01 0.01 0.01 0.00 0.00 0.00 0.01 0.03 0.02 0.05 0.07 0.03 0.03 0.05 0.07 0.09 0.12 0.14 0.14 0.17 0.18 0.22 0.28 0.33
0.13 0.13 0.11 0.06 0.05 0.03 0.02 0.02 0.01 0.01 0.00 0.00 0.00 0.01 0.01 0.01 0.01 0.01 0.01 0.01 0.01 0.01 0.01 0.01 0.00 0.00 0.01 0.02 0.06 0.12 0.15 0.11 0.08 0.06 0.07 0.08 0.09 0.12 0.13 0.09 0.07 0.09 0.10 0.16
0.06 0.08 0.08 0.06 0.03 0.02 0.01 0.01 0.01 0.00 0.00 0.00 0.01 0.01 0.01 0.01 0.01 0.01 0.01 0.01 0.01 0.01 0.02 0.01 0.00 0.00 0.00 0.01 0.03 0.03 0.04 0.04 0.06 0.09 0.07 0.06 0.10 0.16 0.22 0.24 0.19 0.11 0.06 0.09
0.04 0.05 0.06 0.05 0.02 0.01 0.01 0.01 0.00 0.00 0.00 0.00 0.00 0.00 0.00 0.01 0.01 0.01 0.01 0.01 0.01 0.01 0.02 0.01 0.01 0.01 0.01 0.01 0.01 0.01 0.02 0.04 0.10 0.12 0.08 0.08 0.14 0.22 0.24 0.24 0.24 0.17 0.10 0.07
0.02 0.02 0.03 0.03 0.02 0.01 0.00 0.00 0.00 0.00 0.00 0.00 0.00 0.00 0.00 0.00 0.01 0.01 0.01 0.02 0.02 0.02 0.02 0.01 0.01 0.01 0.01 0.01 0.02 0.03 0.04 0.04 0.11 0.17 0.12 0.12 0.15 0.16 0.16 0.18 0.17 0.13 0.11 0.10
0.01 0.01 0.02 0.02 0.02 0.01 0.01 0.01 0.00 0.00 0.00 0.00 0.00 0.00 0.00 0.00 0.00 0.01 0.01 0.01 0.02 0.02 0.02 0.02 0.02 0.01 0.01 0.02 0.02 0.05 0.08 0.05 0.06 0.18 0.22 0.19 0.18 0.17 0.19 0.20 0.17 0.13 0.09 0.06
0.01 0.01 0.02 0.03 0.02 0.02 0.01 0.01 0.01 0.01 0.01 0.01 0.01 0.01 0.01 0.01 0.01 0.01 0.01 0.01 0.01 0.02 0.02 0.02 0.03 0.02 0.02 0.02 0.03 0.03 0.05 0.06 0.07 0.17 0.23 0.19 0.17 0.18 0.20 0.19 0.17 0.15 0.12 0.08
0.03 0.03 0.03 0.04 0.03 0.02 0.02 0.01 0.01 0.01 0.01 0.01 0.01 0.01 0.01 0.01 0.01 0.01 0.01 0.01 0.01 0.02 0.02 0.02 0.03 0.03 0.02 0.02 0.03 0.04 0.04 0.05 0.07 0.12 0.13 0.10 0.11 0.15 0.17 0.18 0.17 0.15 0.13 0.12
0.04 0.03 0.02 0.02 0.02 0.01 0.01 0.01 0.01 0.01 0.01 0.01 0.01 0.01 0.01 0.01 0.01 0.01 0.01 0.01 0.02 0.02 0.02 0.02 0.03 0.02 0.02 0.02 0.04 0.04 0.05 0.05 0.07 0.09 0.10 0.12 0.15 0.17 0.16 0.16 0.17 0.18 0.16 0.16
0.03 0.02 0.02 0.01 0.01 0.01 0.01 0.01 0.01 0.01 0.00 0.01 0.01 0.01 0.01 0.01 0.01 0.02 0.03 0.03 0.02 0.02 0.02 0.03 0.03 0.03 0.03 0.04 0.05 0.06 0.07 0.06 0.07 0.09 0.10 0.12 0.13 0.15 0.16 0.17 0.19 0.21 0.22 0.19
0.02 0.02 0.02 0.01 0.01 0.01 0.01 0.01 0.01 0.01 0.01 0.01 0.01 0.02 0.02 0.02 0.03 0.03 0.04 0.04 0.04 0.04 0.04 0.04 0.04 0.04 0.06 0.07 0.07 0.07 0.07 0.06 0.07 0.10 0.13 0.14 0.15 0.16 0.16 0.17 0.20 0.21 0.23 0.24
0.02 0.02 0.03 0.02 0.02 0.02 0.02 0.02 0.02 0.02 0.02 0.02 0.03 0.04 0.05 0.05 0.05 0.06 0.05 0.05 0.05 0.05 0.05 0.05 0.06 0.08 0.10 0.09 0.09 0.08 0.07 0.07 0.08 0.10 0.12 0.14 0.15 0.17 0.17 0.18 0.19 0.21 0.24 0.28
0.04 0.04 0.03 0.04 0.04 0.04 0.03 0.03 0.03 0.03 0.03 0.03 0.04 0.06 0.06 0.07 0.06 0.06 0.06 0.06 0.06 0.07 0.06 0.06 0.08 0.11 0.13 0.10 0.10 0.10 0.09 0.09 0.11 0.11 0.12 0.13 0.15 0.17 0.19 0.21 0.23 0.23 0.25 0.28
0.05 0.05 0.05 0.05 0.06 0.06 0.05 0.04 0.03 0.03 0.03 0.04 0.04 0.04 0.04 0.05 0.05 0.06 0.06 0.07 0.07 0.07 0.07 0.08 0.11 0.13 0.11 0.10 0.11 0.12 0.12 0.13 0.14 0.16 0.16 0.17 0.18 0.20 0.21 0.23 0.25 0.27 0.30 0.32
0.05 0.04 0.04 0.05 0.06 0.07 0.07 0.06 0.06 0.05 0.05 0.04 0.04 0.03 0.03 0.03 0.03 0.04 0.04 0.05 0.06 0.07 0.07 0.07 0.07 0.07 0.07 0.07 0.08 0.09 0.09 0.10 0.11 0.13 0.14 0.16 0.17 0.20 0.21 0.22 0.23 0.27 0.32 0.35
0.06 0.05 0.05 0.05 0.05 0.06 0.07 0.07 0.08 0.09 0.08 0.07 0.06 0.05 0.05 0.05 0.05 0.05 0.04 0.04 0.05 0.05 0.06 0.07 0.07 0.07 0.08 0.08 0.08 0.08 0.08 0.08 0.09 0.11 0.12 0.13 0.14 0.17 0.19 0.21 0.24 0.27 0.31 0.35